TimeCDT,TemperatureF,Dew PointF,Humidity,Sea Level PressureIn,VisibilityMPH,Wind Direction,Wind SpeedMPH,Gust SpeedMPH,PrecipitationIn,Events,Conditions,WindDirDegrees,DateUTC
12:15 AM,68.0,35.2,30,29.54,10.0,SSE,19.6,-,N/A,,Clear,160,2013-09-26 05:15:00
12:35 AM,67.1,35.8,31,29.54,10.0,South,23.0,28.8,N/A,,Clear,170,2013-09-26 05:35:00
12:55 AM,66.4,36.5,33,29.54,10.0,South,23.0,-,N/A,,Clear,170,2013-09-26 05:55:00
1:15 AM,65.8,36.7,34,29.54,10.0,South,20.7,-,N/A,,Clear,170,2013-09-26 06:15:00
1:35 AM,65.3,36.7,35,29.54,10.0,South,20.7,26.5,N/A,,Clear,180,2013-09-26 06:35:00
1:55 AM,64.6,37.4,37,29.55,10.0,South,18.4,-,N/A,,Clear,170,2013-09-26 06:55:00
2:15 AM,62.2,38.3,41,29.56,10.0,SW,9.2,-,N/A,,Clear,230,2013-09-26 07:15:00
2:35 AM,61.9,38.7,42,29.56,10.0,SSW,12.7,-,N/A,,Clear,200,2013-09-26 07:35:00
2:55 AM,59.9,39.7,47,29.56,10.0,SW,10.4,-,N/A,,Clear,220,2013-09-26 07:55:00
3:15 AM,60.1,40.5,48,29.56,10.0,SW,11.5,-,N/A,,Clear,220,2013-09-26 08:15:00
3:35 AM,59.5,41.2,51,29.57,10.0,SW,10.4,-,N/A,,Clear,230,2013-09-26 08:35:00
3:55 AM,57.2,41.9,57,29.57,10.0,SSW,10.4,-,N/A,,Clear,210,2013-09-26 08:55:00
4:15 AM,54.5,41.9,62,29.61,10.0,NNW,13.8,-,N/A,,Clear,340,2013-09-26 09:15:00
4:35 AM,58.8,42.8,55,29.60,10.0,SSW,3.5,-,N/A,,Clear,210,2013-09-26 09:35:00
4:55 AM,52.0,42.6,70,29.61,10.0,SE,4.6,-,N/A,,Clear,140,2013-09-26 09:55:00
5:15 AM,53.8,43.0,67,29.61,10.0,SW,4.6,-,N/A,,Clear,220,2013-09-26 10:15:00
5:35 AM,54.0,42.8,66,29.63,10.0,West,3.5,-,N/A,,Clear,270,2013-09-26 10:35:00
5:55 AM,55.2,41.5,60,29.64,10.0,Calm,Calm,-,N/A,,Clear,0,2013-09-26 10:55:00
6:15 AM,56.8,41.4,56,29.65,10.0,NW,3.5,-,N/A,,Clear,310,2013-09-26 11:15:00
6:35 AM,55.0,41.7,61,29.65,10.0,NW,6.9,-,N/A,,Clear,320,2013-09-26 11:35:00
6:55 AM,52.3,41.2,66,29.66,10.0,WNW,5.8,-,N/A,,Clear,290,2013-09-26 11:55:00
7:15 AM,51.6,41.2,68,29.67,10.0,NW,3.5,-,N/A,,Clear,310,2013-09-26 12:15:00
7:35 AM,52.0,42.4,70,29.68,10.0,NNW,8.1,-,N/A,,Clear,340,2013-09-26 12:35:00
7:55 AM,52.0,42.4,70,29.69,10.0,WNW,4.6,-,N/A,,Clear,300,2013-09-26 12:55:00
8:15 AM,53.6,43.7,69,29.69,10.0,NW,5.8,-,N/A,,Clear,320,2013-09-26 13:15:00
8:35 AM,54.9,44.1,67,29.70,10.0,NW,4.6,-,N/A,,Clear,320,2013-09-26 13:35:00
8:55 AM,56.5,44.8,65,29.70,10.0,NW,9.2,-,N/A,,Clear,320,2013-09-26 13:55:00
9:15 AM,58.3,45.1,62,29.71,10.0,NNW,9.2,-,N/A,,Clear,330,2013-09-26 14:15:00
9:35 AM,59.2,45.1,60,29.71,10.0,NNW,12.7,19.6,N/A,,Clear,330,2013-09-26 14:35:00
9:55 AM,59.9,45.0,58,29.72,10.0,NNW,10.4,19.6,N/A,,Clear,340,2013-09-26 14:55:00
10:15 AM,60.8,45.3,57,29.72,10.0,NW,11.5,-,N/A,,Clear,320,2013-09-26 15:15:00
10:35 AM,62.4,45.5,54,29.73,10.0,NNW,10.4,-,N/A,,Clear,340,2013-09-26 15:35:00
10:55 AM,63.7,45.5,52,29.72,10.0,NW,10.4,-,N/A,,Clear,310,2013-09-26 15:55:00
11:15 AM,65.3,45.5,49,29.73,10.0,North,10.4,-,N/A,,Clear,10,2013-09-26 16:15:00
11:35 AM,66.2,45.5,47,29.73,10.0,NNW,8.1,-,N/A,,Clear,340,2013-09-26 16:35:00
11:55 AM,67.8,45.5,45,29.72,10.0,North,6.9,-,N/A,,Clear,350,2013-09-26 16:55:00
12:15 PM,68.5,45.3,43,29.72,10.0,NW,8.1,-,N/A,,Clear,320,2013-09-26 17:15:00
12:35 PM,69.1,45.3,42,29.72,10.0,WNW,5.8,-,N/A,,Clear,300,2013-09-26 17:35:00
12:55 PM,69.6,44.8,41,29.72,10.0,West,5.8,-,N/A,,Clear,280,2013-09-26 17:55:00
1:15 PM,71.4,45.1,39,29.72,10.0,Calm,Calm,-,N/A,,Clear,0,2013-09-26 18:15:00
1:35 PM,72.7,45.0,37,29.71,10.0,NNW,4.6,-,N/A,,Clear,330,2013-09-26 18:35:00
1:55 PM,72.9,45.0,37,29.71,10.0,North,3.5,-,N/A,,Clear,360,2013-09-26 18:55:00
2:15 PM,74.1,45.0,35,29.70,10.0,Calm,Calm,-,N/A,,Clear,0,2013-09-26 19:15:00
2:35 PM,76.1,44.1,32,29.70,10.0,NE,3.5,-,N/A,,Clear,40,2013-09-26 19:35:00
2:55 PM,75.6,43.7,32,29.70,10.0,SSW,4.6,-,N/A,,Clear,200,2013-09-26 19:55:00
3:15 PM,75.6,43.3,32,29.70,10.0,Calm,Calm,-,N/A,,Clear,0,2013-09-26 20:15:00
3:35 PM,76.8,42.8,30,29.69,10.0,Calm,Calm,-,N/A,,Clear,0,2013-09-26 20:35:00
3:55 PM,78.8,41.2,26,29.68,10.0,South,6.9,-,N/A,,Clear,170,2013-09-26 20:55:00
4:15 PM,79.0,41.2,26,29.68,10.0,SW,4.6,-,N/A,,Clear,230,2013-09-26 21:15:00
4:35 PM,80.8,39.7,23,29.68,10.0,SSE,10.4,-,N/A,,Clear,160,2013-09-26 21:35:00
4:55 PM,81.7,39.6,22,29.68,10.0,SSE,8.1,-,N/A,,Clear,160,2013-09-26 21:55:00
5:15 PM,81.7,38.7,22,29.67,10.0,SSW,10.4,-,N/A,,Clear,210,2013-09-26 22:15:00
5:35 PM,81.5,38.1,21,29.67,10.0,South,9.2,-,N/A,,Clear,180,2013-09-26 22:35:00
5:55 PM,81.5,38.1,21,29.66,10.0,SSW,8.1,-,N/A,,Clear,200,2013-09-26 22:55:00
6:15 PM,81.0,38.7,22,29.66,10.0,SSW,5.8,-,N/A,,Clear,210,2013-09-26 23:15:00
6:35 PM,80.6,37.9,22,29.65,10.0,WSW,3.5,-,N/A,,Clear,240,2013-09-26 23:35:00
6:55 PM,79.2,39.6,24,29.65,10.0,Calm,Calm,-,N/A,,Clear,0,2013-09-26 23:55:00
7:15 PM,77.9,38.8,25,29.65,10.0,Calm,Calm,-,N/A,,Clear,0,2013-09-27 00:15:00
7:35 PM,73.8,44.2,35,29.65,7.0,Calm,Calm,-,N/A,,Clear,0,2013-09-27 00:35:00
7:55 PM,70.3,42.3,36,29.65,10.0,East,4.6,-,N/A,,Clear,100,2013-09-27 00:55:00
8:15 PM,70.3,42.8,37,29.65,10.0,Calm,Calm,-,N/A,,Clear,0,2013-09-27 01:15:00
8:35 PM,67.5,43.3,42,29.65,10.0,Calm,Calm,-,N/A,,Clear,0,2013-09-27 01:35:00
8:55 PM,65.5,44.2,46,29.66,10.0,Calm,Calm,-,N/A,,Clear,0,2013-09-27 01:55:00
9:15 PM,66.0,43.3,44,29.66,10.0,Calm,Calm,-,N/A,,Clear,0,2013-09-27 02:15:00
9:35 PM,64.6,43.3,46,29.67,10.0,ENE,4.6,-,N/A,,Clear,60,2013-09-27 02:35:00
9:55 PM,62.4,43.3,50,29.66,10.0,Calm,Calm,-,N/A,,Clear,0,2013-09-27 02:55:00
10:15 PM,61.2,44.1,53,29.66,10.0,East,3.5,-,N/A,,Clear,80,2013-09-27 03:15:00
10:35 PM,59.7,44.1,56,29.65,10.0,NNE,3.5,-,N/A,,Clear,30,2013-09-27 03:35:00
10:55 PM,61.9,43.5,51,29.65,10.0,Calm,Calm,-,N/A,,Clear,0,2013-09-27 03:55:00
11:15 PM,62.8,42.6,48,29.65,10.0,Calm,Calm,-,N/A,,Clear,0,2013-09-27 04:15:00
11:35 PM,61.5,43.3,51,29.64,10.0,SE,5.8,-,N/A,,Clear,140,2013-09-27 04:35:00
11:55 PM,61.3,43.7,52,29.65,10.0,Calm,Calm,-,N/A,,Clear,0,2013-09-27 04:55:00